Location: Newark
(48.2308°N, 120.8549°W)
Time: 13:57:52
(UTC+00:00)

N. Korean satellite - Visible Passes

Search period start: 28 February 2021 00:00
Search period end: 10 March 2021 00:00
Orbit: 451 x 503 km, 97.2° (Epoch: 27 February)

Date Brightness Start Highest point End Pass type
(mag) Time Alt. Az. Time Alt. Az. Time Alt. Az.
28 Feb 8.4 13:03:25 10° NNE 13:06:37 32° E 13:09:50 10° SSE visible
01 Mar 9.6 12:37:23 10° NE 12:39:43 17° E 12:42:04 10° SE visible
01 Mar 7.1 14:09:54 10° N 14:13:10 37° WNW 14:16:28 10° SW visible
02 Mar 6.4 13:42:58 10° N 13:46:30 80° WNW 13:50:04 10° SSW visible
03 Mar 7.6 13:16:19 10° NNE 13:19:44 47° E 13:23:12 10° S visible
04 Mar 9.1 12:49:58 10° NE 12:52:53 23° E 12:55:47 10° SSE visible
05 Mar 9.9 12:24:27 10° ENE 12:25:55 12° E 12:27:23 10° ESE visible
05 Mar 6.6 13:56:04 10° N 13:59:33 54° WNW 14:03:03 10° SSW visible
06 Mar 6.9 13:29:15 10° NNE 13:32:48 70° E 13:36:24 10° S visible
07 Mar 8.5 13:02:43 10° NNE 13:05:58 33° E 13:09:16 10° SSE visible
08 Mar 9.7 12:36:38 10° NE 12:39:04 17° E 12:41:29 10° SE visible
09 Mar 6.5 13:42:14 10° N 13:45:49 81° WNW 13:49:26 10° SSW visible
